owner,sensor,date,latitude,longitude,air_pressure(mBar),qcFlag 
TABS,ioos:station:wmo:42046:1,2014-01-01T00:00:00Z,27.8903,-94.0367,1026.29,11111222 
TABS,ioos:station:wmo:42046:1,2014-01-01T00:30:00Z,27.8903,-94.0367,1026.51,11111222 
TABS,ioos:station:wmo:42046:1,2014-01-01T01:00:00Z,27.8903,-94.0367,1026.43,11111222 
TABS,ioos:station:wmo:42046:1,2014-01-01T01:30:00Z,27.8903,-94.0367,1026.37,11111222 
TABS,ioos:station:wmo:42046:1,2014-01-01T02:00:00Z,27.8903,-94.0367,1026.7,11111222 
TABS,ioos:station:wmo:42046:1,2014-01-01T02:30:00Z,27.8903,-94.0367,1026.17,11111222 
TABS,ioos:station:wmo:42046:1,2014-01-01T03:00:00Z,27.8903,-94.0367,1025.73,11111222 
TABS,ioos:station:wmo:42046:1,2014-01-01T03:30:00Z,27.8903,-94.0367,1025.94,11111222 
TABS,ioos:station:wmo:42046:1,2014-01-01T04:00:00Z,27.8903,-94.0367,1026.14,11111222 
TABS,ioos:station:wmo:42046:1,2014-01-01T04:30:00Z,27.8903,-94.0367,1026.27,11111222 
TABS,ioos:station:wmo:42046:1,2014-01-01T05:00:00Z,27.8903,-94.0367,1025.89,11111222 
TABS,ioos:station:wmo:42046:1,2014-01-01T05:30:00Z,27.8903,-94.0367,1025.47,11111222 
TABS,ioos:station:wmo:42046:1,2014-01-01T06:00:00Z,27.8903,-94.0367,1024.89,11111222 
TABS,ioos:station:wmo:42046:1,2014-01-01T06:30:00Z,27.8903,-94.0367,1024.51,11111222 
TABS,ioos:station:wmo:42046:1,2014-01-01T07:00:00Z,27.8903,-94.0367,1024.15,11111222 
TABS,ioos:station:wmo:42046:1,2014-01-01T07:30:00Z,27.8903,-94.0367,1023.49,11111222 
TABS,ioos:station:wmo:42046:1,2014-01-01T08:00:00Z,27.8903,-94.0367,1023.18,11111222 
TABS,ioos:station:wmo:42046:1,2014-01-01T08:30:00Z,27.8903,-94.0367,1023.02,11111222 
TABS,ioos:station:wmo:42046:1,2014-01-01T09:00:00Z,27.8903,-94.0367,1022.54,11111222 
TABS,ioos:station:wmo:42046:1,2014-01-01T09:30:00Z,27.8903,-94.0367,1022.66,11111222 
TABS,ioos:station:wmo:42046:1,2014-01-01T10:00:00Z,27.8903,-94.0367,1022.53,11111222 
TABS,ioos:station:wmo:42046:1,2014-01-01T10:30:00Z,27.8903,-94.0367,1022.39,11111222 
TABS,ioos:station:wmo:42046:1,2014-01-01T11:00:00Z,27.8903,-94.0367,1021.98,11111222 
TABS,ioos:station:wmo:42046:1,2014-01-01T11:30:00Z,27.8903,-94.0367,1021.98,11111222 
TABS,ioos:station:wmo:42046:1,2014-01-01T12:00:00Z,27.8903,-94.0367,1021.79,11111222 
TABS,ioos:station:wmo:42046:1,2014-01-01T12:30:00Z,27.8903,-94.0367,1021.8,11111222 
TABS,ioos:station:wmo:42046:1,2014-01-01T13:00:00Z,27.8903,-94.0367,1021.73,11111222 
TABS,ioos:station:wmo:42046:1,2014-01-01T13:30:00Z,27.8903,-94.0367,1021.8,11111222 
TABS,ioos:station:wmo:42046:1,2014-01-01T14:00:00Z,27.8903,-94.0367,1022.17,11111222 
TABS,ioos:station:wmo:42046:1,2014-01-01T14:30:00Z,27.8903,-94.0367,1022.51,11111222 
TABS,ioos:station:wmo:42046:1,2014-01-01T15:00:00Z,27.8903,-94.0367,1022.82,11111222 
TABS,ioos:station:wmo:42046:1,2014-01-01T15:30:00Z,27.8903,-94.0367,1022.53,11111222 
TABS,ioos:station:wmo:42046:1,2014-01-01T16:00:00Z,27.8903,-94.0367,1022.24,11111222 
TABS,ioos:station:wmo:42046:1,2014-01-01T16:30:00Z,27.8903,-94.0367,1021.86,11111222 
TABS,ioos:station:wmo:42046:1,2014-01-01T17:00:00Z,27.8903,-94.0367,1021.25,11111222 
TABS,ioos:station:wmo:42046:1,2014-01-01T17:30:00Z,27.8903,-94.0367,1020.77,11111222 
TABS,ioos:station:wmo:42046:1,2014-01-01T18:00:00Z,27.8903,-94.0367,1020.28,11111222 
TABS,ioos:station:wmo:42046:1,2014-01-01T18:30:00Z,27.8903,-94.0367,1019.32,11111222 
TABS,ioos:station:wmo:42046:1,2014-01-01T19:00:00Z,27.8903,-94.0367,1018.88,11111222 
TABS,ioos:station:wmo:42046:1,2014-01-01T19:30:00Z,27.8903,-94.0367,1018.29,11111222 
TABS,ioos:station:wmo:42046:1,2014-01-01T20:00:00Z,27.8903,-94.0367,1017.9,11111222 
TABS,ioos:station:wmo:42046:1,2014-01-01T20:30:00Z,27.8903,-94.0367,1017.77,11111222 
TABS,ioos:station:wmo:42046:1,2014-01-01T21:00:00Z,27.8903,-94.0367,1017.19,11111222 
TABS,ioos:station:wmo:42046:1,2014-01-01T21:30:00Z,27.8903,-94.0367,1017.04,11111222 
TABS,ioos:station:wmo:42046:1,2014-01-01T22:00:00Z,27.8903,-94.0367,1016.49,11111222 
TABS,ioos:station:wmo:42046:1,2014-01-01T22:30:00Z,27.8903,-94.0367,1016.63,11111222 
TABS,ioos:station:wmo:42046:1,2014-01-01T23:00:00Z,27.8903,-94.0367,1016.64,11111222 
TABS,ioos:station:wmo:42046:1,2014-01-01T23:30:00Z,27.8903,-94.0367,1016.51,11111222 
TABS,ioos:station:wmo:42046:1,2014-01-02T00:00:00Z,27.8903,-94.0367,1016.65,11111222 
TABS,ioos:station:wmo:42046:1,2014-01-02T00:30:00Z,27.8903,-94.0367,1016.68,11111222 
TABS,ioos:station:wmo:42046:1,2014-01-02T01:00:00Z,27.8903,-94.0367,1016.16,11111222 
TABS,ioos:station:wmo:42046:1,2014-01-02T01:30:00Z,27.8903,-94.0367,1016.51,11111222 
TABS,ioos:station:wmo:42046:1,2014-01-02T02:00:00Z,27.8903,-94.0367,1016.76,11111222 
TABS,ioos:station:wmo:42046:1,2014-01-02T02:30:00Z,27.8903,-94.0367,1016.75,11111222 
TABS,ioos:station:wmo:42046:1,2014-01-02T03:00:00Z,27.8903,-94.0367,1016.3,11111222 
TABS,ioos:station:wmo:42046:1,2014-01-02T03:30:00Z,27.8903,-94.0367,1017.03,11111222 
TABS,ioos:station:wmo:42046:1,2014-01-02T04:00:00Z,27.8903,-94.0367,1017.19,11111222 
TABS,ioos:station:wmo:42046:1,2014-01-02T04:30:00Z,27.8903,-94.0367,1016.91,11111222 
TABS,ioos:station:wmo:42046:1,2014-01-02T05:00:00Z,27.8903,-94.0367,1016.63,11111222 
TABS,ioos:station:wmo:42046:1,2014-01-02T05:30:00Z,27.8903,-94.0367,1016.55,11111222 
TABS,ioos:station:wmo:42046:1,2014-01-02T06:00:00Z,27.8903,-94.0367,1016.26,11111222 
TABS,ioos:station:wmo:42046:1,2014-01-02T06:30:00Z,27.8903,-94.0367,1016.2,11111222 
TABS,ioos:station:wmo:42046:1,2014-01-02T07:00:00Z,27.8903,-94.0367,1015.91,11111222 
TABS,ioos:station:wmo:42046:1,2014-01-02T07:30:00Z,27.8903,-94.0367,1015.96,11111222 
TABS,ioos:station:wmo:42046:1,2014-01-02T08:00:00Z,27.8903,-94.0367,1015.88,11111222 
TABS,ioos:station:wmo:42046:1,2014-01-02T08:30:00Z,27.8903,-94.0367,1015.58,11111222 
TABS,ioos:station:wmo:42046:1,2014-01-02T09:00:00Z,27.8903,-94.0367,1015.62,11111222 
TABS,ioos:station:wmo:42046:1,2014-01-02T09:30:00Z,27.8903,-94.0367,1015.56,11111222 
TABS,ioos:station:wmo:42046:1,2014-01-02T10:00:00Z,27.8903,-94.0367,1015.86,11111222 
TABS,ioos:station:wmo:42046:1,2014-01-02T10:30:00Z,27.8903,-94.0367,1015.64,11111222 
TABS,ioos:station:wmo:42046:1,2014-01-02T11:00:00Z,27.8903,-94.0367,1016.13,11111222 
TABS,ioos:station:wmo:42046:1,2014-01-02T11:30:00Z,27.8903,-94.0367,1016.44,11111222 
TABS,ioos:station:wmo:42046:1,2014-01-02T12:00:00Z,27.8903,-94.0367,1017.57,11111222 
TABS,ioos:station:wmo:42046:1,2014-01-02T12:30:00Z,27.8903,-94.0367,1017.9,11111222 
TABS,ioos:station:wmo:42046:1,2014-01-02T13:00:00Z,27.8903,-94.0367,1018.91,11111222 
TABS,ioos:station:wmo:42046:1,2014-01-02T13:30:00Z,27.8903,-94.0367,1019.52,11111222 
TABS,ioos:station:wmo:42046:1,2014-01-02T14:00:00Z,27.8903,-94.0367,1020.07,11111222 
TABS,ioos:station:wmo:42046:1,2014-01-02T14:30:00Z,27.8903,-94.0367,1020.42,11111222 
TABS,ioos:station:wmo:42046:1,2014-01-02T15:00:00Z,27.8903,-94.0367,1021.48,11111222 
TABS,ioos:station:wmo:42046:1,2014-01-02T15:30:00Z,27.8903,-94.0367,1021.84,11111222 
TABS,ioos:station:wmo:42046:1,2014-01-02T16:00:00Z,27.8903,-94.0367,1022.08,11111222 
TABS,ioos:station:wmo:42046:1,2014-01-02T16:30:00Z,27.8903,-94.0367,1021.94,11111222 
TABS,ioos:station:wmo:42046:1,2014-01-02T17:00:00Z,27.8903,-94.0367,1022.5,11111222 
TABS,ioos:station:wmo:42046:1,2014-01-02T17:30:00Z,27.8903,-94.0367,1022.23,11111222 
TABS,ioos:station:wmo:42046:1,2014-01-02T18:00:00Z,27.8903,-94.0367,1022.0,11111222 
TABS,ioos:station:wmo:42046:1,2014-01-02T18:30:00Z,27.8903,-94.0367,1021.14,11111222 
TABS,ioos:station:wmo:42046:1,2014-01-02T19:00:00Z,27.8903,-94.0367,1021.6,11111222 
TABS,ioos:station:wmo:42046:1,2014-01-02T19:30:00Z,27.8903,-94.0367,1022.2,11111222 
TABS,ioos:station:wmo:42046:1,2014-01-02T20:00:00Z,27.8903,-94.0367,1021.31,11111222 
TABS,ioos:station:wmo:42046:1,2014-01-02T20:30:00Z,27.8903,-94.0367,1022.4,11111222 
TABS,ioos:station:wmo:42046:1,2014-01-02T21:00:00Z,27.8903,-94.0367,1021.76,11111222 
TABS,ioos:station:wmo:42046:1,2014-01-02T21:30:00Z,27.8903,-94.0367,1023.27,11111222 
TABS,ioos:station:wmo:42046:1,2014-01-02T22:00:00Z,27.8903,-94.0367,1023.77,11111222 
TABS,ioos:station:wmo:42046:1,2014-01-02T22:30:00Z,27.8903,-94.0367,1023.35,11111222 
TABS,ioos:station:wmo:42046:1,2014-01-02T23:00:00Z,27.8903,-94.0367,1024.31,11111222 
TABS,ioos:station:wmo:42046:1,2014-01-02T23:30:00Z,27.8903,-94.0367,1024.9,11111222 
TABS,ioos:station:wmo:42046:1,2014-01-03T00:00:00Z,27.8903,-94.0367,1025.05,11111222 
TABS,ioos:station:wmo:42046:1,2014-01-03T00:30:00Z,27.8903,-94.0367,1025.32,11111222 
TABS,ioos:station:wmo:42046:1,2014-01-03T01:00:00Z,27.8903,-94.0367,1025.23,11111222 
TABS,ioos:station:wmo:42046:1,2014-01-03T01:30:00Z,27.8903,-94.0367,1025.95,11111222 
TABS,ioos:station:wmo:42046:1,2014-01-03T02:00:00Z,27.8903,-94.0367,1026.77,11111222 
TABS,ioos:station:wmo:42046:1,2014-01-03T02:30:00Z,27.8903,-94.0367,1027.12,11111222 
TABS,ioos:station:wmo:42046:1,2014-01-03T03:00:00Z,27.8903,-94.0367,1028.04,11111222 
TABS,ioos:station:wmo:42046:1,2014-01-03T03:30:00Z,27.8903,-94.0367,1027.43,11111222 
TABS,ioos:station:wmo:42046:1,2014-01-03T04:00:00Z,27.8903,-94.0367,1028.38,11111222 
TABS,ioos:station:wmo:42046:1,2014-01-03T04:30:00Z,27.8903,-94.0367,1028.22,11111222 
TABS,ioos:station:wmo:42046:1,2014-01-03T05:00:00Z,27.8903,-94.0367,1028.21,11111222 
TABS,ioos:station:wmo:42046:1,2014-01-03T05:30:00Z,27.8903,-94.0367,1028.32,11111222 
TABS,ioos:station:wmo:42046:1,2014-01-03T06:00:00Z,27.8903,-94.0367,1027.62,11111222 
TABS,ioos:station:wmo:42046:1,2014-01-03T06:30:00Z,27.8903,-94.0367,1027.96,11111222 
TABS,ioos:station:wmo:42046:1,2014-01-03T07:00:00Z,27.8903,-94.0367,1028.06,11111222 
TABS,ioos:station:wmo:42046:1,2014-01-03T07:30:00Z,27.8903,-94.0367,1027.81,11111222 
TABS,ioos:station:wmo:42046:1,2014-01-03T08:00:00Z,27.8903,-94.0367,1027.9,11111222 
TABS,ioos:station:wmo:42046:1,2014-01-03T08:30:00Z,27.8903,-94.0367,1027.97,11111222 
TABS,ioos:station:wmo:42046:1,2014-01-03T09:00:00Z,27.8903,-94.0367,1028.5,11111222 
TABS,ioos:station:wmo:42046:1,2014-01-03T09:30:00Z,27.8903,-94.0367,1028.37,11111222 
TABS,ioos:station:wmo:42046:1,2014-01-03T10:00:00Z,27.8903,-94.0367,1027.87,11111222 
TABS,ioos:station:wmo:42046:1,2014-01-03T10:30:00Z,27.8903,-94.0367,1028.22,11111222 
TABS,ioos:station:wmo:42046:1,2014-01-03T11:00:00Z,27.8903,-94.0367,1028.21,11111222 
TABS,ioos:station:wmo:42046:1,2014-01-03T11:30:00Z,27.8903,-94.0367,1028.23,11111222 
TABS,ioos:station:wmo:42046:1,2014-01-03T12:00:00Z,27.8903,-94.0367,1028.56,11111222 
TABS,ioos:station:wmo:42046:1,2014-01-03T12:30:00Z,27.8903,-94.0367,1028.78,11111222 
TABS,ioos:station:wmo:42046:1,2014-01-03T13:00:00Z,27.8903,-94.0367,1028.97,11111222 
TABS,ioos:station:wmo:42046:1,2014-01-03T13:30:00Z,27.8903,-94.0367,1029.21,11111222 
TABS,ioos:station:wmo:42046:1,2014-01-03T14:00:00Z,27.8903,-94.0367,1029.61,11111222 
TABS,ioos:station:wmo:42046:1,2014-01-03T14:30:00Z,27.8903,-94.0367,1029.56,11111222 
TABS,ioos:station:wmo:42046:1,2014-01-03T15:00:00Z,27.8903,-94.0367,1029.92,11111222 
TABS,ioos:station:wmo:42046:1,2014-01-03T15:30:00Z,27.8903,-94.0367,1030.24,11111222 
TABS,ioos:station:wmo:42046:1,2014-01-03T16:00:00Z,27.8903,-94.0367,1030.47,11111222 
TABS,ioos:station:wmo:42046:1,2014-01-03T16:30:00Z,27.8903,-94.0367,1030.15,11111222 
TABS,ioos:station:wmo:42046:1,2014-01-03T17:00:00Z,27.8903,-94.0367,1029.92,11111222 
TABS,ioos:station:wmo:42046:1,2014-01-03T17:30:00Z,27.8903,-94.0367,1029.26,11111222 
TABS,ioos:station:wmo:42046:1,2014-01-03T18:00:00Z,27.8903,-94.0367,1028.81,11111222 
TABS,ioos:station:wmo:42046:1,2014-01-03T18:30:00Z,27.8903,-94.0367,1028.27,11111222 
TABS,ioos:station:wmo:42046:1,2014-01-03T19:00:00Z,27.8903,-94.0367,1027.63,11111222 
TABS,ioos:station:wmo:42046:1,2014-01-03T19:30:00Z,27.8903,-94.0367,1027.26,11111222 
TABS,ioos:station:wmo:42046:1,2014-01-03T20:00:00Z,27.8903,-94.0367,1026.78,11111222 
TABS,ioos:station:wmo:42046:1,2014-01-03T20:30:00Z,27.8903,-94.0367,1026.8,11111222 
TABS,ioos:station:wmo:42046:1,2014-01-03T21:00:00Z,27.8903,-94.0367,1026.63,11111222 
TABS,ioos:station:wmo:42046:1,2014-01-03T21:30:00Z,27.8903,-94.0367,1026.34,11111222 
TABS,ioos:station:wmo:42046:1,2014-01-03T22:00:00Z,27.8903,-94.0367,1026.28,11111222 
TABS,ioos:station:wmo:42046:1,2014-01-03T22:30:00Z,27.8903,-94.0367,1025.94,11111222 
TABS,ioos:station:wmo:42046:1,2014-01-03T23:00:00Z,27.8903,-94.0367,1025.87,11111222 
TABS,ioos:station:wmo:42046:1,2014-01-03T23:30:00Z,27.8903,-94.0367,1025.6,11111222 
TABS,ioos:station:wmo:42046:1,2014-01-04T00:00:00Z,27.8903,-94.0367,1025.74,11111222 
TABS,ioos:station:wmo:42046:1,2014-01-04T00:30:00Z,27.8903,-94.0367,1025.61,11111222 
TABS,ioos:station:wmo:42046:1,2014-01-04T01:00:00Z,27.8903,-94.0367,1025.59,11111222 
TABS,ioos:station:wmo:42046:1,2014-01-04T01:30:00Z,27.8903,-94.0367,1025.58,11111222 
TABS,ioos:station:wmo:42046:1,2014-01-04T02:00:00Z,27.8903,-94.0367,1025.62,11111222 
TABS,ioos:station:wmo:42046:1,2014-01-04T02:30:00Z,27.8903,-94.0367,1025.67,11111222 
TABS,ioos:station:wmo:42046:1,2014-01-04T03:00:00Z,27.8903,-94.0367,1025.42,11111222 
TABS,ioos:station:wmo:42046:1,2014-01-04T03:30:00Z,27.8903,-94.0367,1025.5,11111222 
TABS,ioos:station:wmo:42046:1,2014-01-04T04:00:00Z,27.8903,-94.0367,1024.94,11111222 
TABS,ioos:station:wmo:42046:1,2014-01-04T04:30:00Z,27.8903,-94.0367,1024.62,11111222 
TABS,ioos:station:wmo:42046:1,2014-01-04T05:00:00Z,27.8903,-94.0367,1024.08,11111222 
TABS,ioos:station:wmo:42046:1,2014-01-04T05:30:00Z,27.8903,-94.0367,1023.91,11111222 
TABS,ioos:station:wmo:42046:1,2014-01-04T06:00:00Z,27.8903,-94.0367,1023.38,11111222 
TABS,ioos:station:wmo:42046:1,2014-01-04T06:30:00Z,27.8903,-94.0367,1022.65,11111222 
TABS,ioos:station:wmo:42046:1,2014-01-04T07:00:00Z,27.8903,-94.0367,1022.33,11111222 
TABS,ioos:station:wmo:42046:1,2014-01-04T07:30:00Z,27.8903,-94.0367,1021.95,11111222 
TABS,ioos:station:wmo:42046:1,2014-01-04T08:00:00Z,27.8903,-94.0367,1021.87,11111222 
TABS,ioos:station:wmo:42046:1,2014-01-04T08:30:00Z,27.8903,-94.0367,1021.77,11111222 
TABS,ioos:station:wmo:42046:1,2014-01-04T09:00:00Z,27.8903,-94.0367,1021.19,11111222 
TABS,ioos:station:wmo:42046:1,2014-01-04T09:30:00Z,27.8903,-94.0367,1020.95,11111222 
TABS,ioos:station:wmo:42046:1,2014-01-04T10:00:00Z,27.8903,-94.0367,1020.81,11111222 
TABS,ioos:station:wmo:42046:1,2014-01-04T10:30:00Z,27.8903,-94.0367,1020.74,11111222 
TABS,ioos:station:wmo:42046:1,2014-01-04T11:00:00Z,27.8903,-94.0367,1020.88,11111222 
TABS,ioos:station:wmo:42046:1,2014-01-04T11:30:00Z,27.8903,-94.0367,1021.15,11111222 
TABS,ioos:station:wmo:42046:1,2014-01-04T12:00:00Z,27.8903,-94.0367,1020.21,11111222 
TABS,ioos:station:wmo:42046:1,2014-01-04T12:30:00Z,27.8903,-94.0367,1020.38,11111222 
TABS,ioos:station:wmo:42046:1,2014-01-04T13:00:00Z,27.8903,-94.0367,1020.96,11111222 
TABS,ioos:station:wmo:42046:1,2014-01-04T13:30:00Z,27.8903,-94.0367,1020.83,11111222 
TABS,ioos:station:wmo:42046:1,2014-01-04T14:00:00Z,27.8903,-94.0367,1020.79,11111222 
TABS,ioos:station:wmo:42046:1,2014-01-04T14:30:00Z,27.8903,-94.0367,1020.54,11111222 
TABS,ioos:station:wmo:42046:1,2014-01-04T15:00:00Z,27.8903,-94.0367,1020.6,11111222 
TABS,ioos:station:wmo:42046:1,2014-01-04T15:30:00Z,27.8903,-94.0367,1020.94,11111222 
TABS,ioos:station:wmo:42046:1,2014-01-04T16:00:00Z,27.8903,-94.0367,1020.94,11111222 
TABS,ioos:station:wmo:42046:1,2014-01-04T16:30:00Z,27.8903,-94.0367,1020.5,11111222 
TABS,ioos:station:wmo:42046:1,2014-01-04T17:00:00Z,27.8903,-94.0367,1020.07,11111222 
TABS,ioos:station:wmo:42046:1,2014-01-04T17:30:00Z,27.8903,-94.0367,1019.48,11111222 
TABS,ioos:station:wmo:42046:1,2014-01-04T18:00:00Z,27.8903,-94.0367,1018.61,11111222 
TABS,ioos:station:wmo:42046:1,2014-01-04T18:30:00Z,27.8903,-94.0367,1017.71,11111222 
TABS,ioos:station:wmo:42046:1,2014-01-04T19:00:00Z,27.8903,-94.0367,1017.46,11111222 
TABS,ioos:station:wmo:42046:1,2014-01-04T19:30:00Z,27.8903,-94.0367,1017.4,11111222 
TABS,ioos:station:wmo:42046:1,2014-01-04T20:00:00Z,27.8903,-94.0367,1017.05,11111222 
TABS,ioos:station:wmo:42046:1,2014-01-04T20:30:00Z,27.8903,-94.0367,1016.59,11111222 
TABS,ioos:station:wmo:42046:1,2014-01-04T21:00:00Z,27.8903,-94.0367,1016.38,11111222 
TABS,ioos:station:wmo:42046:1,2014-01-04T21:30:00Z,27.8903,-94.0367,1016.18,11111222 
TABS,ioos:station:wmo:42046:1,2014-01-04T22:00:00Z,27.8903,-94.0367,1015.65,11111222 
TABS,ioos:station:wmo:42046:1,2014-01-04T22:30:00Z,27.8903,-94.0367,1015.37,11111222 
TABS,ioos:station:wmo:42046:1,2014-01-04T23:00:00Z,27.8903,-94.0367,1015.26,11111222 
TABS,ioos:station:wmo:42046:1,2014-01-04T23:30:00Z,27.8903,-94.0367,1014.98,11111222 
TABS,ioos:station:wmo:42046:1,2014-01-05T00:00:00Z,27.8903,-94.0367,1014.98,11111222 
TABS,ioos:station:wmo:42046:1,2014-01-05T00:30:00Z,27.8903,-94.0367,1015.35,11111222 
TABS,ioos:station:wmo:42046:1,2014-01-05T01:00:00Z,27.8903,-94.0367,1015.37,11111222 
TABS,ioos:station:wmo:42046:1,2014-01-05T01:30:00Z,27.8903,-94.0367,1015.56,11111222 
TABS,ioos:station:wmo:42046:1,2014-01-05T02:00:00Z,27.8903,-94.0367,1015.72,11111222 
TABS,ioos:station:wmo:42046:1,2014-01-05T02:30:00Z,27.8903,-94.0367,1015.72,11111222 
TABS,ioos:station:wmo:42046:1,2014-01-05T03:00:00Z,27.8903,-94.0367,1015.49,11111222 
TABS,ioos:station:wmo:42046:1,2014-01-05T03:30:00Z,27.8903,-94.0367,1015.24,11111222 
TABS,ioos:station:wmo:42046:1,2014-01-05T04:00:00Z,27.8903,-94.0367,1014.87,11111222 
TABS,ioos:station:wmo:42046:1,2014-01-05T04:30:00Z,27.8903,-94.0367,1014.8,11111222 
TABS,ioos:station:wmo:42046:1,2014-01-05T05:00:00Z,27.8903,-94.0367,1014.25,11111222 
TABS,ioos:station:wmo:42046:1,2014-01-05T05:30:00Z,27.8903,-94.0367,1013.79,11111222 
TABS,ioos:station:wmo:42046:1,2014-01-05T06:00:00Z,27.8903,-94.0367,1013.39,11111222 
TABS,ioos:station:wmo:42046:1,2014-01-05T06:30:00Z,27.8903,-94.0367,1012.63,11111222 
TABS,ioos:station:wmo:42046:1,2014-01-05T07:00:00Z,27.8903,-94.0367,1012.65,11111222 
TABS,ioos:station:wmo:42046:1,2014-01-05T07:30:00Z,27.8903,-94.0367,1012.69,11111222 
TABS,ioos:station:wmo:42046:1,2014-01-05T08:00:00Z,27.8903,-94.0367,1012.83,11111222 
TABS,ioos:station:wmo:42046:1,2014-01-05T08:30:00Z,27.8903,-94.0367,1012.78,11111222 
TABS,ioos:station:wmo:42046:1,2014-01-05T09:00:00Z,27.8903,-94.0367,1012.54,11111222 
TABS,ioos:station:wmo:42046:1,2014-01-05T09:30:00Z,27.8903,-94.0367,1012.7,11111222 
TABS,ioos:station:wmo:42046:1,2014-01-05T10:00:00Z,27.8903,-94.0367,1012.33,11111222 
TABS,ioos:station:wmo:42046:1,2014-01-05T10:30:00Z,27.8903,-94.0367,1012.25,11111222 
TABS,ioos:station:wmo:42046:1,2014-01-05T11:00:00Z,27.8903,-94.0367,1011.97,11111222 
TABS,ioos:station:wmo:42046:1,2014-01-05T11:30:00Z,27.8903,-94.0367,1012.15,11111222 
TABS,ioos:station:wmo:42046:1,2014-01-05T12:00:00Z,27.8903,-94.0367,1012.13,11111222 
TABS,ioos:station:wmo:42046:1,2014-01-05T12:30:00Z,27.8903,-94.0367,1012.69,11111222 
TABS,ioos:station:wmo:42046:1,2014-01-05T13:00:00Z,27.8903,-94.0367,1012.63,11111222 
TABS,ioos:station:wmo:42046:1,2014-01-05T13:30:00Z,27.8903,-94.0367,1013.25,11111222 
TABS,ioos:station:wmo:42046:1,2014-01-05T14:00:00Z,27.8903,-94.0367,1013.34,11111222 
TABS,ioos:station:wmo:42046:1,2014-01-05T14:30:00Z,27.8903,-94.0367,1013.84,11111222 
TABS,ioos:station:wmo:42046:1,2014-01-05T15:00:00Z,27.8903,-94.0367,1014.33,11111222 
TABS,ioos:station:wmo:42046:1,2014-01-05T15:30:00Z,27.8903,-94.0367,1014.48,11111222 
TABS,ioos:station:wmo:42046:1,2014-01-05T16:00:00Z,27.8903,-94.0367,1014.31,11111222 
TABS,ioos:station:wmo:42046:1,2014-01-05T16:30:00Z,27.8903,-94.0367,1014.22,11111222 
TABS,ioos:station:wmo:42046:1,2014-01-05T17:00:00Z,27.8903,-94.0367,1013.59,11111222 
TABS,ioos:station:wmo:42046:1,2014-01-05T17:30:00Z,27.8903,-94.0367,1013.2,11111222 
TABS,ioos:station:wmo:42046:1,2014-01-05T18:00:00Z,27.8903,-94.0367,1012.99,11111222 
TABS,ioos:station:wmo:42046:1,2014-01-05T18:30:00Z,27.8903,-94.0367,1013.39,11111222 
TABS,ioos:station:wmo:42046:1,2014-01-05T19:00:00Z,27.8903,-94.0367,1013.17,11111222 
TABS,ioos:station:wmo:42046:1,2014-01-05T19:30:00Z,27.8903,-94.0367,1012.73,11111222 
TABS,ioos:station:wmo:42046:1,2014-01-05T20:00:00Z,27.8903,-94.0367,1013.44,11111222 
TABS,ioos:station:wmo:42046:1,2014-01-05T20:30:00Z,27.8903,-94.0367,1013.33,11111222 
TABS,ioos:station:wmo:42046:1,2014-01-05T21:00:00Z,27.8903,-94.0367,1014.86,11111222 
TABS,ioos:station:wmo:42046:1,2014-01-05T21:30:00Z,27.8903,-94.0367,1015.17,11111222 
TABS,ioos:station:wmo:42046:1,2014-01-05T22:00:00Z,27.8903,-94.0367,1015.77,11111222 
TABS,ioos:station:wmo:42046:1,2014-01-05T22:30:00Z,27.8903,-94.0367,1015.98,11111222 
TABS,ioos:station:wmo:42046:1,2014-01-05T23:00:00Z,27.8903,-94.0367,1016.64,11111222 
TABS,ioos:station:wmo:42046:1,2014-01-05T23:30:00Z,27.8903,-94.0367,1017.49,11111222 
TABS,ioos:station:wmo:42046:1,2014-01-06T00:00:00Z,27.8903,-94.0367,1017.78,11111222 
TABS,ioos:station:wmo:42046:1,2014-01-06T00:30:00Z,27.8903,-94.0367,1018.16,11111222 
TABS,ioos:station:wmo:42046:1,2014-01-06T01:00:00Z,27.8903,-94.0367,1019.32,11111222 
TABS,ioos:station:wmo:42046:1,2014-01-06T01:30:00Z,27.8903,-94.0367,1020.12,11111222 
TABS,ioos:station:wmo:42046:1,2014-01-06T02:00:00Z,27.8903,-94.0367,1020.16,11111222 
TABS,ioos:station:wmo:42046:1,2014-01-06T02:30:00Z,27.8903,-94.0367,1020.72,11111222 
TABS,ioos:station:wmo:42046:1,2014-01-06T03:00:00Z,27.8903,-94.0367,1021.47,11111222 
TABS,ioos:station:wmo:42046:1,2014-01-06T03:30:00Z,27.8903,-94.0367,1022.12,11111222 
TABS,ioos:station:wmo:42046:1,2014-01-06T04:00:00Z,27.8903,-94.0367,1022.29,11111222 
TABS,ioos:station:wmo:42046:1,2014-01-06T04:30:00Z,27.8903,-94.0367,1023.17,11111222 
TABS,ioos:station:wmo:42046:1,2014-01-06T05:00:00Z,27.8903,-94.0367,1023.4,11111222 
TABS,ioos:station:wmo:42046:1,2014-01-06T05:30:00Z,27.8903,-94.0367,1023.49,11111222 
TABS,ioos:station:wmo:42046:1,2014-01-06T06:00:00Z,27.8903,-94.0367,1023.86,11111222 
TABS,ioos:station:wmo:42046:1,2014-01-06T06:30:00Z,27.8903,-94.0367,1024.16,11111222 
TABS,ioos:station:wmo:42046:1,2014-01-06T07:00:00Z,27.8903,-94.0367,1024.75,11111222 
TABS,ioos:station:wmo:42046:1,2014-01-06T07:30:00Z,27.8903,-94.0367,1025.16,11111222 
TABS,ioos:station:wmo:42046:1,2014-01-06T08:00:00Z,27.8903,-94.0367,1025.31,11111222 
TABS,ioos:station:wmo:42046:1,2014-01-06T08:30:00Z,27.8903,-94.0367,1025.86,11111222 
TABS,ioos:station:wmo:42046:1,2014-01-06T09:00:00Z,27.8903,-94.0367,1026.27,11111222 
TABS,ioos:station:wmo:42046:1,2014-01-06T09:30:00Z,27.8903,-94.0367,1026.59,11111222 
TABS,ioos:station:wmo:42046:1,2014-01-06T10:00:00Z,27.8903,-94.0367,1027.03,11111222 
TABS,ioos:station:wmo:42046:1,2014-01-06T10:30:00Z,27.8903,-94.0367,1027.45,11111222 
TABS,ioos:station:wmo:42046:1,2014-01-06T11:00:00Z,27.8903,-94.0367,1027.46,11111222 
TABS,ioos:station:wmo:42046:1,2014-01-06T11:30:00Z,27.8903,-94.0367,1027.97,11111222 
TABS,ioos:station:wmo:42046:1,2014-01-06T12:00:00Z,27.8903,-94.0367,1028.69,11111222 
TABS,ioos:station:wmo:42046:1,2014-01-06T12:30:00Z,27.8903,-94.0367,1029.63,11111222 
TABS,ioos:station:wmo:42046:1,2014-01-06T13:00:00Z,27.8903,-94.0367,1030.09,11111222 
TABS,ioos:station:wmo:42046:1,2014-01-06T13:30:00Z,27.8903,-94.0367,1031.36,11111222 
TABS,ioos:station:wmo:42046:1,2014-01-06T14:00:00Z,27.8903,-94.0367,1032.29,11111222 
TABS,ioos:station:wmo:42046:1,2014-01-06T14:30:00Z,27.8903,-94.0367,1032.53,11111222 
TABS,ioos:station:wmo:42046:1,2014-01-06T15:00:00Z,27.8903,-94.0367,1033.22,11111222 
TABS,ioos:station:wmo:42046:1,2014-01-06T15:30:00Z,27.8903,-94.0367,1034.04,11111222 
TABS,ioos:station:wmo:42046:1,2014-01-06T16:00:00Z,27.8903,-94.0367,1034.09,11111222 
TABS,ioos:station:wmo:42046:1,2014-01-06T16:30:00Z,27.8903,-94.0367,1034.51,11111222 
TABS,ioos:station:wmo:42046:1,2014-01-06T17:00:00Z,27.8903,-94.0367,1034.26,11111222 
TABS,ioos:station:wmo:42046:1,2014-01-06T17:30:00Z,27.8903,-94.0367,1034.61,11111222 
TABS,ioos:station:wmo:42046:1,2014-01-06T18:00:00Z,27.8903,-94.0367,1034.39,11111222 
TABS,ioos:station:wmo:42046:1,2014-01-06T18:30:00Z,27.8903,-94.0367,1033.95,11111222 